GW1491 Weather Reports


time (UTC)temp
C
wind
direction
speed
KPH
gust
KPH
rain 1hr
cm
rain 24hr
cm
rain mn
cm
humidity
%
barometer
mb
20260508092722 5 240 0.0 1.6 0.00 0.00 0.00 86 1014.9
20260508092142 5 248 0.0 0.0 0.00 0.00 0.00 85 1014.9
20260508091528 5 248 0.0 0.0 0.00 0.00 0.00 85 1014.9
20260508090932 5 248 0.0 1.6 0.00 0.00 0.00 84 1014.9
20260508085139 5 259 0.0 0.0 0.00 0.00 0.00 81 1014.9
20260508084547 5 262 0.0 0.0 0.00 0.00 0.00 81 1014.9
20260508083912 6 266 0.0 0.0 0.00 0.00 0.00 81 1014.9
20260508083313 6 261 0.0 1.6 0.00 0.00 0.00 81 1014.9
20260508082735 6 259 0.0 1.6 0.00 0.00 0.00 80 1014.9
20260508082150 5 241 0.0 1.6 0.00 0.00 0.00 80 1014.9
20260508081537 6 221 0.0 1.6 0.00 0.00 0.00 80 1015.2
20260508080328 5 220 0.0 1.6 0.00 0.00 0.00 80 1014.9
20260508075731 5 220 0.0 1.6 0.00 0.00 0.00 80 1015.2
20260508075120 5 276 0.0 1.6 0.00 0.00 0.00 81 1015.2
20260508074529 5 277 0.0 1.6 0.00 0.00 0.00 81 1015.2
20260508073327 5 281 3.2 3.2 0.00 0.00 0.00 82 1014.9
20260508072733 5 273 1.6 1.6 0.00 0.00 0.00 82 1015.2
20260508072115 5 253 0.0 1.6 0.00 0.00 0.00 82 1014.9
20260508071537 5 270 0.0 0.0 0.00 0.00 0.00 81 1014.9
20260508070950 5 275 0.0 1.6 0.00 0.00 0.00 81 1014.9
20260508070338 5 273 1.6 3.2 0.00 0.00 0.00 80 1014.9
20260508065738 5 263 0.0 1.6 0.00 0.00 0.00 80 1014.9
20260508065133 5 266 0.0 1.6 0.00 0.00 0.00 78 1015.2
20260508064520 5 271 0.0 1.6 0.00 0.00 0.00 78 1015.2
20260508063925 5 271 0.0 1.6 0.00 0.00 0.00 77 1015.2
20260508063318 6 272 0.0 1.6 0.00 0.00 0.00 77 1015.2
20260508062742 6 271 0.0 1.6 0.00 0.00 0.00 76 1014.9
20260508062146 6 271 0.0 1.6 0.00 0.00 0.00 76 1014.9
20260508061530 6 273 0.0 1.6 0.00 0.00 0.00 76 1014.9
20260508060909 6 269 0.0 1.6 0.00 0.00 0.00 75 1014.9
20260508060341 6 274 0.0 1.6 0.00 0.00 0.00 74 1015.2
20260508055751 6 274 0.0 0.0 0.00 0.00 0.00 74 1015.2
20260508055141 6 276 0.0 1.6 0.00 0.00 0.00 73 1015.2
20260508054544 6 276 0.0 1.6 0.00 0.00 0.00 73 1015.5
20260508052738 6 276 0.0 1.6 0.00 0.00 0.00 71 1015.5
20260508052132 7 278 0.0 3.2 0.00 0.00 0.00 70 1015.5
20260508051526 7 278 0.0 1.6 0.00 0.00 0.00 70 1015.5
20260508050945 7 278 0.0 1.6 0.00 0.00 0.00 70 1015.5
20260508050309 7 278 0.0 1.6 0.00 0.00 0.00 70 1015.5
20260508045724 7 278 0.0 0.0 0.00 0.00 0.00 69 1015.5
20260508045128 7 278 0.0 1.6 0.00 0.00 0.00 69 1015.5
20260508044542 7 278 0.0 0.0 0.00 0.00 0.00 69 1015.5
20260508043936 7 278 1.6 1.6 0.00 0.00 0.00 70 1015.2
20260508043347 7 278 0.0 1.6 0.00 0.00 0.00 69 1015.2
20260508042723 7 281 0.0 1.6 0.00 0.00 0.00 68 1015.5
20260508042141 7 281 0.0 1.6 0.00 0.00 0.00 67 1015.2
20260508041532 7 282 1.6 3.2 0.00 0.00 0.00 67 1015.2
20260508040318 7 278 0.0 1.6 0.00 0.00 0.00 66 1015.2
20260508035120 7 278 0.0 0.0 0.00 0.00 0.00 66 1015.2
20260508034526 7 278 0.0 0.0 0.00 0.00 0.00 65 1015.2
20260508033916 8 278 0.0 1.6 0.00 0.00 0.00 64 1015.5
20260508033321 8 278 0.0 1.6 0.00 0.00 0.00 63 1014.9
20260508032734 8 276 1.6 3.2 0.00 0.00 0.00 62 1015.2
20260508032147 8 280 3.2 3.2 0.00 0.00 0.00 62 1015.2
20260508031526 8 282 3.2 3.2 0.00 0.00 0.00 65 1015.2
20260508030931 7 282 1.6 1.6 0.00 0.00 0.00 67 1015.2
20260508030311 7 282 1.6 1.6 0.00 0.00 0.00 68 1015.2
20260508025719 7 282 0.0 1.6 0.00 0.00 0.00 67 1014.9
20260508025114 7 282 0.0 1.6 0.00 0.00 0.00 67 1015.2
20260508024525 7 282 0.0 1.6 0.00 0.00 0.00 67 1015.2
20260508023946 7 282 1.6 1.6 0.00 0.00 0.00 66 1015.2
20260508023341 7 282 0.0 0.0 0.00 0.00 0.00 65 1015.2
20260508022723 8 282 0.0 1.6 0.00 0.00 0.00 65 1015.2
20260508021515 8 282 0.0 1.6 0.00 0.00 0.00 62 1015.2
20260508020945 9 282 1.6 3.2 0.00 0.00 0.00 61 1015.2
20260508020349 8 282 1.6 1.6 0.00 0.00 0.00 62 1015.2
20260508015738 8 282 0.0 1.6 0.00 0.00 0.00 61 1015.2
20260508015145 9 283 0.0 1.6 0.00 0.00 0.00 60 1014.9
20260508014517 10 276 1.6 3.2 0.00 0.00 0.00 59 1014.9
20260508012725 10 287 1.6 3.2 0.00 0.00 0.00 58 1014.9
20260508011528 10 311 0.0 1.6 0.00 0.00 0.00 56 1014.5
20260508010935 10 303 0.0 1.6 0.00 0.00 0.00 56 1014.5
20260508010349 10 295 0.0 1.6 0.00 0.00 0.00 57 1014.5
20260508005736 10 288 1.6 1.6 0.00 0.00 0.00 57 1014.2
20260508003908 10 285 1.6 1.6 0.00 0.00 0.00 56 1014.5
20260508003340 11 285 0.0 3.2 0.00 0.00 0.00 56 1014.2
20260508002734 11 285 1.6 3.2 0.00 0.00 0.00 54 1014.2
20260508002110 11 295 1.6 3.2 0.00 0.00 0.00 54 1014.2
20260508001532 12 297 1.6 3.2 0.00 0.00 0.00 54 1014.2
20260508000949 12 315 3.2 4.8 0.00 0.00 0.00 52 1014.2
20260508000335 12 294 3.2 4.8 0.00 0.00 0.00 52 1013.8
20260507235747 12 290 3.2 4.8 0.00 0.00 0.00 51 1014.2
20260507235119 12 281 6.4 9.7 0.00 0.00 0.00 51 1013.8
20260507234551 13 288 4.8 6.4 0.00 0.00 0.00 51 1013.8
20260507233938 13 289 4.8 11.3 0.00 0.00 0.00 51 1013.8
20260507233347 13 356 0.0 11.3 0.00 0.00 0.00 50 1013.8
20260507231535 13 326 6.4 14.5 0.00 0.00 0.00 49 1013.5
20260507225744 14 304 3.2 11.3 0.00 0.00 0.00 51 1013.8
20260507225120 14 286 16.1 19.3 0.00 0.00 0.00 49 1013.8
20260507224527 13 343 4.8 9.7 0.00 0.00 0.00 50 1013.5
20260507223918 13 304 3.2 25.7 0.00 0.00 0.00 50 1013.8
20260507223338 14 254 4.8 11.3 0.00 0.00 0.00 50 1013.5
20260507222719 15 339 8.0 17.7 0.00 0.00 0.00 46 1013.2
20260507221516 15 289 9.7 16.1 0.00 0.00 0.00 46 1013.5
20260507220312 14 331 3.2 16.1 0.00 0.00 0.00 47 1013.5
20260507215738 13 285 3.2 11.3 0.00 0.00 0.00 47 1013.2
20260507215144 14 345 9.7 17.7 0.00 0.00 0.00 46 1012.8
20260507213944 15 315 14.5 22.5 0.00 0.00 0.00 43 1012.8
20260507212736 15 296 9.7 16.1 0.00 0.00 0.00 42 1012.5
20260507211532 15 308 9.7 24.1 0.00 0.00 0.00 41 1012.5
20260507210928 15 329 6.4 14.5 0.00 0.00 0.00 43 1012.5
20260507210344 15 328 4.8 17.7 0.00 0.00 0.00 43 1012.5
20260507204547 16 335 9.7 12.9 0.00 0.00 0.00 42 1012.5
20260507202737 15 328 3.2 17.7 0.00 0.00 0.00 45 1012.5
20260507202152 15 284 12.9 24.1 0.00 0.00 0.00 45 1012.5
20260507201538 15 346 22.5 27.4 0.00 0.00 0.00 45 1012.5
20260507200938 15 290 14.5 24.1 0.00 0.00 0.00 44 1012.8
20260507195752 16 276 11.3 14.5 0.00 0.00 0.00 45 1012.5
20260507195151 15 270 12.9 17.7 0.00 0.00 0.00 43 1012.8
20260507194514 16 253 11.3 22.5 0.00 0.00 0.00 41 1012.5
20260507193951 16 281 12.9 16.1 0.00 0.00 0.00 41 1012.8
20260507192732 15 349 3.2 11.3 0.00 0.00 0.00 45 1012.8
20260507192146 15 337 1.6 16.1 0.00 0.00 0.00 48 1012.8
20260507191535 15 339 9.7 27.4 0.00 0.00 0.00 46 1012.8
20260507190936 15 314 4.8 14.5 0.00 0.00 0.00 47 1012.8
20260507185724 16 262 11.3 14.5 0.00 0.00 0.00 47 1013.2
20260507185150 15 322 4.8 12.9 0.00 0.00 0.00 50 1013.5
20260507184548 15 313 1.6 11.3 0.00 0.00 0.00 47 1013.2
20260507183951 16 292 6.4 22.5 0.00 0.00 0.00 51 1013.2
20260507183308 15 321 14.5 22.5 0.00 0.00 0.00 47 1012.8
20260507182714 15 354 3.2 16.1 0.00 0.00 0.00 47 1013.2
20260507182150 15 294 8.0 12.9 0.00 0.00 0.00 46 1013.2
20260507181510 15 276 4.8 14.5 0.00 0.00 0.00 49 1013.2
20260507180927 14 237 8.0 19.3 0.00 0.00 0.00 47 1012.8
20260507180324 15 321 3.2 17.7 0.00 0.00 0.00 50 1012.8
20260507174520 16 11 1.6 3.2 0.00 0.00 0.00 50 1013.2
20260507173945 14 303 8.0 14.5 0.00 0.00 0.00 46 1013.5
20260507172732 15 339 6.4 19.3 0.00 0.00 0.00 48 1013.5
20260507172129 15 291 4.8 14.5 0.00 0.00 0.00 52 1013.5
20260507170911 15 215 4.8 12.9 0.00 0.00 0.00 47 1013.8
20260507170321 14 179 1.6 9.7 0.00 0.00 0.00 49 1013.5
20260507165750 14 307 6.4 11.3 0.00 0.00 0.00 47 1013.5
20260507165135 14 322 3.2 12.9 0.00 0.00 0.00 47 1013.8
20260507163923 14 271 4.8 12.9 0.00 0.00 0.00 53 1013.8
20260507162722 15 257 4.8 11.3 0.00 0.00 0.00 49 1013.8
20260507162152 13 282 4.8 11.3 0.00 0.00 0.00 48 1013.8
20260507161555 14 265 9.7 27.4 0.00 0.00 0.00 48 1013.8
20260507160923 13 333 6.4 9.7 0.00 0.00 0.00 49 1014.2
20260507160346 14 254 12.9 22.5 0.00 0.00 0.00 50 1014.2
20260507155731 14 314 3.2 6.4 0.00 0.00 0.00 49 1013.8
20260507155123 13 239 3.2 11.3 0.00 0.00 0.00 47 1014.2
20260507154519 13 322 12.9 14.5 0.00 0.00 0.00 49 1014.2
20260507153911 13 332 6.4 12.9 0.00 0.00 0.00 49 1014.2
20260507153315 13 228 3.2 16.1 0.00 0.00 0.00 51 1014.2
20260507152750 12 276 4.8 14.5 0.00 0.00 0.00 50 1014.2
20260507151534 13 316 9.7 12.9 0.00 0.00 0.00 52 1014.2
20260507150347 12 235 4.8 16.1 0.00 0.00 0.00 52 1014.5
20260507145715 13 270 12.9 14.5 0.00 0.00 0.00 51 1014.5
20260507145111 13 333 4.8 14.5 0.00 0.00 0.00 53 1014.2
20260507144515 13 303 9.7 14.5 0.00 0.00 0.00 52 1014.5
20260507143939 12 279 3.2 11.3 0.00 0.00 0.00 55 1014.5
20260507143320 12 175 1.6 9.7 0.00 0.00 0.00 55 1014.2
20260507142123 12 268 9.7 14.5 0.00 0.00 0.00 58 1014.5
20260507141517 12 305 3.2 4.8 0.00 0.00 0.00 61 1014.5
20260507140926 12 330 3.2 14.5 0.00 0.00 0.00 60 1014.9
20260507140342 12 246 8.0 9.7 0.00 0.00 0.00 62 1014.9
20260507135143 12 344 3.2 6.4 0.00 0.00 0.00 64 1014.9
20260507134519 11 305 8.0 11.3 0.00 0.00 0.00 63 1015.2
20260507133319 11 273 3.2 6.4 0.00 0.00 0.00 66 1014.9
20260507132742 11 343 4.8 9.7 0.00 0.00 0.00 69 1014.9
20260507132122 11 290 4.8 11.3 0.00 0.00 0.00 71 1015.2
20260507130911 10 276 3.2 3.2 0.00 0.00 0.00 77 1015.2
20260507130311 10 346 3.2 11.3 0.00 0.00 0.00 78 1015.2
20260507124550 9 303 3.2 11.3 0.00 0.00 0.00 81 1014.9
20260507123942 8 297 1.6 6.4 0.00 0.00 0.00 82 1015.2
20260507123343 8 284 6.4 9.7 0.00 0.00 0.00 82 1014.9
20260507122748 8 280 3.2 4.8 0.00 0.00 0.00 84 1014.9
20260507122127 8 272 1.6 6.4 0.00 0.00 0.00 85 1015.2
20260507120340 6 304 6.4 9.7 0.00 0.00 0.00 93 1015.2
20260507115712 6 282 3.2 6.4 0.00 0.00 0.00 96 1014.9
20260507115146 6 279 1.6 6.4 0.00 0.00 0.00 97 1014.9
20260507114527 6 296 1.6 1.6 0.00 0.00 0.00 98 1014.9
20260507113916 6 270 3.2 3.2 0.00 0.00 0.00 98 1014.9
20260507113326 6 306 1.6 1.6 0.00 0.00 0.00 98 1014.9
20260507112752 5 315 0.0 0.0 0.00 0.00 0.00 98 1014.9
20260507111513 5 315 0.0 0.0 0.00 0.00 0.00 98 1014.9
20260507110940 5 315 0.0 0.0 0.00 0.00 0.00 98 1014.9
20260507110320 4 315 0.0 0.0 0.00 0.00 0.00 98 1014.9
20260507105717 4 316 0.0 0.0 0.00 0.00 0.00 98 1014.9
20260507105143 4 316 0.0 0.0 0.00 0.00 0.00 98 1014.5
20260507104546 4 317 0.0 0.0 0.00 0.00 0.00 98 1014.5
20260507103320 4 317 0.0 0.0 0.00 0.00 0.00 98 1014.2
20260507102729 3 317 0.0 0.0 0.00 0.00 0.00 97 1014.5
20260507101525 3 317 0.0 0.0 0.00 0.00 0.00 97 1014.2
20260507100912 4 317 0.0 0.0 0.00 0.00 0.00 96 1014.5
20260507100332 4 317 0.0 0.0 0.00 0.00 0.00 96 1013.8
20260507095740 4 317 0.0 0.0 0.00 0.00 0.00 95 1014.2
20260507095110 4 317 0.0 0.0 0.00 0.00 0.00 95 1014.2
20260507093930 5 317 0.0 0.0 0.00 0.00 0.00 93 1014.2
20260507093344 5 317 1.6 1.6 0.00 0.00 0.00 93 1014.2